{"data":{"norad_id":58607,"intl_designator":"2023-200U","name":"STARLINK-31069","alt_names":[],"object_type":"PAYLOAD","status":"ACTIVE","operator":null,"country":"US","launch_date":"2023-12-19","launch_site_code":"AFETR","launch_vehicle":null,"mission":null,"orbit_class":"UNKNOWN","rcs_meters":null,"size_class":null,"mass_kg":null,"dimensions":null,"purposes":["comms"],"wikipedia_slug":null,"has_3d_model":false,"image_url":null,"decayed_at":null,"tle_current":{"epoch":"2026-09-20T22:52:15.902976Z","epoch_age_seconds":110685,"freshness":"FRESH","line1":"1 58607U 23200U   26263.95296184  .00000597  00000+0  31221-4 0  9999","line2":"2 58607  43.0004 146.1183 0001352 271.7277  88.3419 15.27579952153472","mean_motion":15.27579952,"eccentricity":0.0001352,"inclination_deg":43.0004,"raan_deg":146.1183,"arg_perigee_deg":271.7277,"mean_anomaly_deg":88.3419,"bstar":3.1221e-5,"rev_number":15347,"period_min":94.266751675725,"perigee_km":482.12160738931,"apogee_km":483.97687214854,"semimajor_km":6861.1862397689,"source":"CELESTRAK","updated_at":"2026-09-21T09:00:33.920506Z"}}}